Sanford, NC

2:42 PM EDT on October 20, 2017 (GMT -0400)
Raleigh Executive Jetport

Weather History for KTTA - November, 2012

Change the Weather History Date:

Thursday, November 29, 2012

  Actual Average (KHRJ) Record (KHRJ)
Temperature  
Mean Temperature 38 °F -  
Max Temperature 56 °F 62 °F 78 °F (1990)
Min Temperature 20 °F 38 °F 21 °F (2002)
Degree Days  
Heating Degree Days 27    
Moisture  
Dew Point 26 °F    
Average Humidity 74    
Maximum Humidity 96    
Minimum Humidity 32    
Precipitation  
Precipitation 0.00 in - - ()
Sea Level Pressure  
Sea Level Pressure 30.42 in    
Wind  
Wind Speed 0 mph (SSW)    
Max Wind Speed 6 mph    
Max Gust Speed -    
Visibility 10 miles    
Events      
Averages and records for this station are not official NWS values.
T = Trace of Precipitation, MM = Missing Value Source: NWS Daily Summary

Daily Weather History Graph

Daily Weather History Graph

Search for Another Location

Airport or City:

Trip Planner

Search our weather history database for the weather conditions in past years. The results will help you decide how hot, cold, wet, or windy it might be!

Date:

Astronomy

Nov. 29, 2012 Rise Set
Actual Time 7:06 AM EST 5:03 PM EST
Civil Twilight 6:38 AM EST 5:31 PM EST
Nautical Twilight 6:06 AM EST 6:02 PM EST
Astronomical Twilight 5:35 AM EST 6:33 PM EST
Moon 6:05 PM EST (11/29) 7:51 AM EST (11/29)
Length of Visible Light 10h 53m
Length of Day
9h 57m
Full, 99% of the Moon is Illuminated
Nov 29
Full
Dec 6
Last Quarter
Dec 13
New
Dec 20
First Quarter
Dec 28
Full

Hourly Weather History & Observations

Time (EST) Temp. Dew Point Humidity Pressure Visibility Wind Dir Wind Speed Gust Speed Precip Events Conditions
12:15 AM 26.8 °F 25.2 °F 94% 30.40 in 10.0 mi Calm Calm - N/A   Clear
12:35 AM 26.1 °F 24.6 °F 94% 30.40 in 10.0 mi Calm Calm - N/A   Clear
12:55 AM 26.6 °F 25.2 °F 94% 30.40 in 5.0 mi Calm Calm - N/A   Clear
1:15 AM 25.5 °F 24.1 °F 94% 30.40 in 10.0 mi Calm Calm - N/A   Clear
1:35 AM 25.3 °F 23.9 °F 94% 30.40 in 10.0 mi Calm Calm - N/A   Clear
1:55 AM 25.5 °F 24.1 °F 94% 30.41 in 7.0 mi Calm Calm - N/A   Clear
2:15 AM 25.0 °F 23.5 °F 94% 30.42 in 7.0 mi Calm Calm - N/A   Clear
2:35 AM 23.9 °F 22.8 °F 96% 30.42 in 10.0 mi Calm Calm - N/A   Clear
2:55 AM 23.7 °F 22.5 °F 95% 30.42 in 10.0 mi Calm Calm - N/A   Clear
3:15 AM 23.9 °F 22.6 °F 95% 30.42 in 10.0 mi Calm Calm - N/A   Clear
3:35 AM 23.5 °F 22.1 °F 94% 30.42 in 10.0 mi Calm Calm - N/A   Clear
3:55 AM 23.4 °F 22.1 °F 95% 30.42 in 10.0 mi Calm Calm - N/A   Clear
4:15 AM 23.5 °F 22.1 °F 94% 30.42 in 10.0 mi Calm Calm - N/A   Clear
4:35 AM 22.6 °F 21.2 °F 94% 30.42 in 10.0 mi Calm Calm - N/A   Clear
4:55 AM 22.8 °F 21.6 °F 95% 30.42 in 10.0 mi Calm Calm - N/A   Clear
5:15 AM 21.7 °F 20.3 °F 94% 30.42 in 10.0 mi Calm Calm - N/A   Clear
5:35 AM 21.7 °F 20.3 °F 94% 30.43 in 10.0 mi Calm Calm - N/A   Clear
5:55 AM 21.6 °F 20.1 °F 94% 30.43 in 10.0 mi Calm Calm - N/A   Clear
6:15 AM 21.9 °F 20.3 °F 93% 30.44 in 10.0 mi Calm Calm - N/A   Clear
6:35 AM 21.7 °F 20.3 °F 94% 30.45 in 10.0 mi Calm Calm - N/A   Clear
6:55 AM 21.0 °F 19.4 °F 93% 30.45 in 10.0 mi Calm Calm - N/A   Clear
7:15 AM 20.7 °F 19.0 °F 93% 30.46 in 10.0 mi Calm Calm - N/A   Clear
7:35 AM 22.1 °F 20.3 °F 93% 30.47 in 10.0 mi Calm Calm - N/A   Clear
7:55 AM 23.2 °F 21.2 °F 92% 30.47 in 10.0 mi Calm Calm - N/A   Clear
8:15 AM 26.4 °F 24.3 °F 92% 30.47 in 10.0 mi Calm Calm - N/A   Clear
8:35 AM 28.4 °F 26.1 °F 91% 30.47 in 10.0 mi Calm Calm - N/A   Clear
8:55 AM 30.2 °F 27.0 °F 88% 30.48 in 10.0 mi Calm Calm - N/A   Clear
9:15 AM 32.2 °F 28.8 °F 87% 30.48 in 10.0 mi Calm Calm - N/A   Clear
9:35 AM 35.2 °F 30.6 °F 83% 30.49 in 10.0 mi Calm Calm - N/A   Clear
9:55 AM 37.6 °F 29.8 °F 74% 30.49 in 10.0 mi Calm Calm - N/A   Clear
10:15 AM 41.2 °F 29.7 °F 64% 30.49 in 10.0 mi Calm Calm - N/A   Clear
10:35 AM 44.1 °F 27.5 °F 52% 30.49 in 10.0 mi Calm Calm - N/A   Clear
11:15 AM 47.3 °F 26.8 °F 45% 30.48 in 10.0 mi Calm Calm - N/A   Clear
11:35 AM 48.6 °F 24.8 °F 39% 30.48 in 10.0 mi Calm Calm - N/A   Clear
11:55 AM 50.9 °F 23.7 °F 35% 30.47 in 10.0 mi Calm Calm - N/A   Clear
12:15 PM 51.8 °F 22.5 °F 32% 30.46 in 10.0 mi Calm Calm - N/A   Clear
12:35 PM 51.8 °F 22.5 °F 32% 30.45 in 10.0 mi South 3.5 mph - N/A   Clear
12:55 PM 53.1 °F 23.4 °F 32% 30.44 in 10.0 mi WSW 3.5 mph - N/A   Clear
1:15 PM 53.1 °F 23.5 °F 32% 30.42 in 10.0 mi Calm Calm - N/A   Clear
1:35 PM 54.1 °F 25.2 °F 33% 30.42 in 10.0 mi Calm Calm - N/A   Clear
1:55 PM 55.4 °F 26.4 °F 33% 30.40 in 10.0 mi Calm Calm - N/A   Clear
2:15 PM 55.2 °F 26.8 °F 34% 30.39 in 10.0 mi South 4.6 mph - N/A   Clear
2:35 PM 55.8 °F 27.9 °F 34% 30.39 in 10.0 mi SSW 4.6 mph - N/A   Clear
2:55 PM 55.6 °F 27.7 °F 34% 30.38 in 10.0 mi West 4.6 mph - N/A   Clear
3:15 PM 56.3 °F 28.6 °F 35% 30.38 in 10.0 mi SSW 5.8 mph - N/A   Clear
3:35 PM 55.9 °F 28.9 °F 36% 30.38 in 10.0 mi South 5.8 mph - N/A   Clear
3:55 PM 55.6 °F 28.6 °F 36% 30.38 in 7.0 mi Calm Calm - N/A   Clear
4:15 PM 55.0 °F 29.3 °F 37% 30.38 in 10.0 mi SW 3.5 mph - N/A   Clear
4:35 PM 53.4 °F 30.6 °F 42% 30.37 in 10.0 mi Calm Calm - N/A   Clear
4:55 PM 48.9 °F 33.8 °F 56% 30.37 in 10.0 mi Calm Calm - N/A   Clear
5:15 PM 44.8 °F 32.2 °F 61% 30.37 in 10.0 mi Calm Calm - N/A   Clear
5:35 PM 44.6 °F 32.4 °F 62% 30.38 in 10.0 mi Calm Calm - N/A   Clear
5:55 PM 42.8 °F 32.0 °F 66% 30.39 in 10.0 mi Calm Calm - N/A   Clear
6:15 PM 40.6 °F 31.8 °F 71% 30.39 in 10.0 mi Calm Calm - N/A   Clear
6:35 PM 39.9 °F 32.0 °F 73% 30.40 in 10.0 mi Calm Calm - N/A   Clear
6:55 PM 37.6 °F 31.1 °F 77% 30.40 in 10.0 mi Calm Calm - N/A   Clear
7:15 PM 35.1 °F 30.4 °F 83% 30.40 in 10.0 mi Calm Calm - N/A   Clear
7:35 PM 35.4 °F 30.2 °F 81% 30.41 in 10.0 mi Calm Calm - N/A   Clear
7:55 PM 33.3 °F 29.8 °F 87% 30.41 in 10.0 mi Calm Calm - N/A   Clear
8:15 PM 33.3 °F 30.0 °F 88% 30.41 in 10.0 mi Calm Calm - N/A   Clear
8:35 PM 32.2 °F 28.8 °F 87% 30.41 in 10.0 mi Calm Calm - N/A   Clear
8:55 PM 32.0 °F 29.3 °F 90% 30.42 in 10.0 mi Calm Calm - N/A   Clear
9:15 PM 32.0 °F 28.9 °F 88% 30.41 in 10.0 mi Calm Calm - N/A   Clear
9:35 PM 30.9 °F 27.9 °F 88% 30.41 in 10.0 mi Calm Calm - N/A   Clear
9:55 PM 31.1 °F 28.4 °F 90% 30.42 in 10.0 mi Calm Calm - N/A   Clear
10:15 PM 30.6 °F 27.5 °F 88% 30.41 in 10.0 mi Calm Calm - N/A   Clear
10:35 PM 29.5 °F 27.1 °F 91% 30.41 in 10.0 mi Calm Calm - N/A   Clear
10:55 PM 29.8 °F 27.7 °F 92% 30.41 in 10.0 mi Calm Calm - N/A   Clear
11:15 PM 28.4 °F 26.6 °F 93% 30.40 in 10.0 mi Calm Calm - N/A   Clear
11:35 PM 28.8 °F 26.8 °F 92% 30.40 in 10.0 mi Calm Calm - N/A   Clear
11:55 PM 28.4 °F 26.6 °F 93% 30.40 in 10.0 mi Calm Calm - N/A   Clear